Regional Weather Roundup
Issued by NWS

Home | Current Version | Previous Version | Text Only | Print | Product List | Glossary Off
Versions: 1 2 3 4 5 6 7 8 9 10 11 12 13 14 15 16 17 18 19 20 21 22 23 24 25 26 27 28 29 30 31 32 33 34 35 36 37 38 39 40 41 42 43 44 45 46 47 48 49 50

000
ASUS43 KBIS 241202
RWRND

NORTH DAKOTA REGIONAL WEATHER ROUNDUP
NATIONAL WEATHER SERVICE BISMARCK ND
700 AM CDT MON APR 24 2017

NOTE: "FAIR" INDICATES FEW OR NO CLOUDS BELOW 12,000 FEET WITH NO
SIGNIFICANT WEATHER AND/OR OBSTRUCTIONS TO VISIBILITY.


NDZ001>003-009>011-017-241300-
NORTHWEST NORTH DAKOTA

CITY           SKY/WX    TMP DP  RH WIND       PRES   REMARKS
WILLISTON      LGT SNOW  31  29  92 NE5       29.72S FOG
6HR MIN TEMP:  31; 6HR MAX TEMP:  32; 6HR PCP:  0.09;

MINOT          CLOUDY    30  26  85 N10       29.73S
MINOT AFB      CLOUDY    29  25  85 NE9       29.73F
$$

NDZ018>021-031>035-040>046-241300-
SOUTHWEST NORTH DAKOTA

CITY           SKY/WX    TMP DP  RH WIND       PRES   REMARKS
BISMARCK       LGT RAIN  33  32  96 NE13      29.66R
6HR MIN TEMP:  33; 6HR MAX TEMP:  34; 6HR PCP:  0.05;

DICKINSON      FRZ RAIN  28  27  96 E8        29.64S FOG     WCI  20
GARRISON         N/A     29  28  96 E12       29.69S WCI  19
6HR MIN TEMP:  29; 6HR MAX TEMP:  29;

HETTINGER ARPT CLOUDY    31  29  92 NE7       29.64F
$$

NDZ004>008-012>016-024-026-027-054-241300-
NORTHEAST NORTH DAKOTA

CITY           SKY/WX    TMP DP  RH WIND       PRES   REMARKS
GRAND FORKS    CLOUDY    36  33  89 NE12      29.73F
GRND FRKS AFB  CLOUDY    33  31  92 E12       29.74F
DEVILS LAKE    CLOUDY    31  28  89 E18G25    29.73F WCI  19
$$

NDZ022-023-025-028>030-036>039-047>053-241300-
SOUTHEAST NORTH DAKOTA

CITY           SKY/WX    TMP DP  RH WIND       PRES   REMARKS
FARGO          CLOUDY    37  31  78 NE5       29.66S
6HR MIN TEMP:  35; 6HR MAX TEMP:  39;

JAMESTOWN      LGT RAIN  33  31  92 NE15      29.63R
$$




USA.gov is the U.S. government's official web portal to all federal, state and local government web resources and services.